Temp
5 5 5 4 4 5 5 5 5 5 4 4 4 3 3 3 2 2 2 2 2 2 2 2 2 2 3 2 2 2 2 2 2 2 2 1 2 2 1 1 1 1 1
4 4 5 5 5 5 5 5 5 4 4 4 3 3 3 3 3 2 2 2 1 2 2 2 2 2 2 2 2 2 2 2 1 2 2 2 1 1 1 1 1 1 1
4 4 4 5 5 5 4 4 4 4 4 3 3 3 2 2 2 2 2 2 1 1 1 1 1 2 2 2 2 2 2 2 2 1 1 2 2 1 1 1 1 1 1
4 4 4 5 4 4 4 4 4 3 3 3 3 2 2 2 2 2 2 2 1 1 1 1 1 1 1 1 1 1 1 2 2 2 2 1 1 1 1 1 1 1 1
4 4 4 4 4 4 4 3 3 3 3 2 2 2 2 2 1 1 1 1 1 1 1 0 1 1 1 1 1 1 1 1 2 2 2 1 1 1 1 1 1 1 1
4 4 3 4 4 4 3 3 3 2 2 2 2 1 1 1 1 1 1 0 0 0 -0 -0 -0 -0 0 0 0 0 1 1 1 1 1 1 1 1 1 1 1 0 1
3 3 3 3 3 3 3 3 3 2 2 1 1 1 1 1 0 0 0 0 -0 -1 -1 -1 -1 -1 -1 -1 -0 -0 0 0 0 1 1 1 1 1 1 0 1 0 0
2 3 3 3 3 3 3 3 2 2 2 1 1 1 0 0 0 -0 -0 -1 -1 -1 -1 -1 -1 -2 -2 -1 -1 -1 -1 -0 -0 -0 0 0 0 0 0 0 0 0 -0
2 2 2 2 2 2 2 2 2 2 1 1 1 0 -0 -0 -0 -1 -1 -1 -1 -2 -2 -2 -2 -2 -2 -2 -2 -2 -2 -1 -1 -1 -1 -1 -0 -0 0 0 0 0 0
1 1 1 2 2 2 2 2 1 1 1 1 0 0 -1 -1 -1 -1 -2 -2 -2 -2 -3 -3 -3 -3 -3 -3 -3 -2 -2 -2 -2 -1 -1 -1 -1 -1 -1 -0 -0 -0 -0
1 1 1 1 1 2 1 1 1 1 1 0 -0 -1 -1 -1 -2 -2 -2 -2 -3 -3 -3 -3 -3 -4 -3 -3 -3 -3 -3 -3 -3 -2 -2 -2 -1 -1 -1 -1 -1 -0 -0
1 1 1 1 1 1 1 1 1 1 0 -1 -1 -1 -2 -2 -2 -3 -3 -3 -3 -3 -4 -4 -4 -4 -4 -4 -4 -4 -4 -4 -3 -3 -3 -2 -2 -2 -2 -1 -1 -1 -1
1 1 1 0 0 0 0 0 0 0 0 -0 -1 -2 -2 -2 -3 -3 -3 -3 -4 -4 -4 -4 -5 -5 -5 -5 -5 -5 -4 -4 -4 -4 -4 -3 -3 -2 -2 -2 -1 -1 -1
1 0 0 -0 0 -0 -0 -0 -0 -0 -0 -1 -1 -2 -2 -3 -3 -3 -4 -4 -4 -4 -5 -5 -5 -5 -6 -5 -5 -6 -5 -5 -5 -5 -4 -4 -4 -3 -3 -2 -2 -2 -1
0 0 -0 -0 -1 -1 -1 -0 -1 -0 -1 -1 -1 -2 -3 -3 -4 -4 -4 -4 -4 -4 -5 -5 -6 -6 -6 -6 -6 -6 -6 -6 -6 -5 -5 -5 -5 -4 -4 -3 -3 -2 -2
1 0 -0 -0 -1 -1 -1 -2 -1 -1 -1 -2 -2 -2 -2 -3 -4 -4 -4 -5 -5 -5 -5 -6 -6 -6 -6 -6 -6 -6 -6 -6 -6 -6 -6 -5 -5 -5 -4 -4 -4 -3 -3
1 -0 -0 -1 -1 -1 -1 -2 -2 -2 -1 -2 -2 -3 -3 -3 -4 -4 -5 -5 -5 -6 -6 -6 -6 -6 -6 -7 -7 -7 -7 -7 -7 -6 -6 -6 -6 -5 -5 -5 -4 -4 -4
0 0 -1 -1 -1 -1 -1 -2 -2 -2 -2 -2 -3 -3 -3 -3 -4 -4 -5 -5 -5 -6 -6 -6 -7 -6 -7 -7 -7 -8 -8 -8 -7 -7 -7 -6 -6 -6 -5 -5 -5 -5 -4
0 0 -1 -1 -2 -2 -2 -2 -3 -2 -2 -3 -3 -3 -4 -4 -4 -4 -5 -5 -6 -6 -6 -6 -7 -7 -7 -7 -7 -8 -8 -8 -8 -8 -7 -7 -7 -6 -6 -6 -5 -5 -5
-0 0 -1 -1 -1 -2 -2 -3 -2 -3 -3 -4 -4 -4 -4 -4 -4 -5 -5 -5 -6 -6 -6 -7 -7 -7 -7 -7 -8 -8 -9 -9 -9 -8 -8 -8 -7 -7 -6 -6 -6 -6 -5
-0 -1 -1 -1 -2 -2 -2 -3 -3 -2 -3 -4 -4 -4 -5 -4 -5 -5 -5 -5 -6 -6 -7 -7 -7 -7 -8 -8 -8 -8 -9 -9 -9 -9 -8 -8 -8 -7 -7 -7 -6 -6 -6
-0 -0 -0 -1 -2 -2 -2 -2 -3 -3 -4 -4 -4 -4 -5 -5 -5 -5 -6 -6 -6 -6 -7 -7 -8 -8 -8 -8 -9 -9 -9 -9 -9 -9 -8 -9 -9 -9 -8 -8 -8 -7 -7
-1 -0 -0 -1 -1 -2 -3 -2 -3 -4 -4 -4 -4 -5 -5 -5 -6 -5 -6 -6 -6 -7 -7 -7 -8 -8 -8 -9 -9 -9 -9 -9 -9 -9 -9 -9 -9 -9 -9 -9 -9 -8 -8
-0 -0 -1 -1 -2 -2 -3 -3 -3 -4 -4 -4 -5 -5 -6 -6 -6 -6 -6 -7 -7 -7 -7 -7 -8 -9 -9 -9 -9 -10 -10 -10 -10 -10 -10 -9 -9 -9 -9 -9 -9 -9 -9
-0 -1 -1 -2 -2 -3 -3 -3 -3 -4 -4 -4 -4 -6 -6 -6 -6 -7 -7 -7 -7 -7 -7 -8 -8 -9 -9 -10 -10 -10 -10 -10 -10 -10 -11 -10 -10 -10 -9 -10 -10 -10 -10
-0 -0 -1 -1 -1 -3 -4 -4 -4 -4 -4 -4 -5 -6 -6 -6 -7 -7 -7 -8 -8 -8 -8 -8 -8 -9 -10 -10 -10 -11 -11 -11 -11 -11 -11 -11 -11 -11 -9 -10 -10 -10 -10
Height
3193 3193 3192 3190 3189 3188 3186 3185 3184 3184 3183 3182 3181 3180 3179 3177 3175 3174 3172 3170 3170 3169 3166 3164 3162 3163 3162 3161 3159 3158 3157 3157 3158 3159 3160 3161 3162 3163 3164 3165 3165 3165 3170
3192 3190 3189 3188 3187 3185 3184 3183 3182 3182 3180 3179 3178 3177 3176 3175 3174 3172 3170 3168 3167 3166 3163 3161 3159 3157 3158 3158 3155 3154 3154 3154 3154 3155 3155 3155 3157 3158 3159 3161 3161 3163 3165
3189 3189 3188 3187 3185 3184 3183 3182 3180 3179 3179 3177 3176 3175 3174 3173 3171 3170 3168 3167 3165 3163 3161 3159 3157 3154 3153 3152 3152 3151 3150 3149 3150 3150 3151 3151 3151 3152 3154 3155 3156 3158 3160
3186 3187 3186 3186 3184 3184 3182 3180 3179 3178 3177 3175 3174 3173 3172 3170 3169 3167 3165 3164 3163 3161 3158 3156 3154 3152 3149 3147 3147 3146 3145 3145 3145 3145 3145 3146 3147 3147 3149 3150 3151 3153 3155
3185 3184 3184 3184 3184 3182 3181 3179 3178 3176 3175 3173 3172 3171 3169 3168 3166 3165 3163 3162 3160 3158 3156 3153 3150 3148 3147 3145 3143 3141 3140 3140 3140 3140 3140 3141 3141 3142 3144 3145 3147 3148 3150
3183 3182 3182 3182 3181 3180 3179 3177 3176 3174 3173 3171 3170 3168 3166 3165 3163 3161 3160 3158 3156 3154 3153 3150 3147 3145 3143 3141 3139 3137 3136 3135 3135 3135 3135 3135 3136 3137 3138 3140 3141 3144 3146
3181 3180 3179 3180 3179 3178 3176 3174 3174 3172 3170 3169 3167 3165 3162 3161 3160 3159 3157 3156 3153 3151 3149 3147 3144 3142 3139 3137 3135 3134 3132 3131 3130 3129 3129 3130 3130 3131 3132 3134 3136 3138 3140
3180 3178 3178 3176 3175 3174 3173 3172 3171 3169 3167 3166 3165 3162 3160 3159 3156 3155 3153 3151 3150 3147 3145 3143 3141 3139 3136 3133 3131 3129 3128 3126 3125 3124 3123 3123 3124 3126 3127 3128 3130 3132 3134
3178 3177 3175 3174 3172 3171 3170 3169 3168 3166 3165 3163 3161 3160 3157 3156 3153 3151 3149 3147 3145 3143 3141 3139 3137 3135 3133 3130 3127 3125 3123 3122 3120 3119 3118 3118 3118 3120 3121 3122 3123 3126 3128
3176 3175 3173 3172 3170 3168 3167 3165 3163 3163 3162 3160 3159 3156 3154 3152 3150 3148 3146 3143 3141 3139 3137 3135 3133 3131 3129 3127 3124 3121 3119 3118 3116 3115 3114 3113 3113 3114 3115 3116 3118 3119 3121
3174 3173 3172 3170 3169 3168 3164 3162 3161 3160 3159 3158 3154 3153 3152 3150 3148 3145 3142 3140 3138 3136 3133 3131 3128 3127 3125 3123 3120 3117 3115 3113 3112 3110 3109 3108 3108 3108 3109 3110 3111 3113 3115
3172 3171 3170 3168 3168 3166 3164 3162 3160 3159 3157 3154 3152 3151 3148 3146 3144 3142 3139 3136 3133 3131 3129 3127 3124 3122 3120 3119 3116 3113 3111 3109 3107 3106 3105 3103 3102 3103 3103 3104 3105 3107 3108
3169 3168 3167 3166 3165 3164 3163 3160 3158 3156 3154 3152 3150 3147 3145 3143 3141 3139 3136 3134 3130 3127 3124 3122 3120 3118 3115 3113 3112 3109 3107 3105 3103 3101 3100 3098 3097 3097 3098 3098 3100 3101 3102
3164 3163 3163 3163 3162 3160 3158 3156 3156 3155 3151 3148 3144 3142 3140 3138 3136 3133 3131 3130 3127 3123 3119 3117 3115 3113 3111 3108 3106 3104 3102 3100 3099 3097 3095 3093 3092 3092 3092 3093 3093 3094 3096
3159 3159 3158 3157 3156 3154 3152 3152 3151 3148 3146 3143 3140 3137 3135 3133 3131 3128 3126 3124 3122 3119 3115 3111 3109 3107 3106 3103 3101 3099 3097 3095 3093 3092 3090 3088 3087 3086 3086 3086 3087 3088 3089
3154 3152 3150 3149 3148 3146 3146 3146 3145 3144 3141 3137 3134 3131 3128 3127 3126 3123 3121 3118 3117 3114 3111 3108 3104 3102 3100 3098 3096 3094 3092 3090 3088 3087 3085 3083 3082 3081 3081 3080 3081 3082 3083
3146 3145 3144 3141 3141 3139 3139 3137 3136 3136 3135 3131 3128 3125 3122 3120 3119 3118 3115 3113 3110 3109 3106 3103 3100 3097 3095 3093 3090 3089 3086 3084 3082 3081 3080 3078 3076 3075 3076 3076 3076 3076 3076
3137 3138 3135 3135 3132 3132 3130 3130 3129 3127 3127 3123 3121 3119 3116 3114 3111 3109 3109 3107 3104 3102 3101 3097 3094 3092 3090 3088 3085 3083 3081 3079 3077 3075 3074 3072 3071 3070 3069 3069 3069 3069 3070
3132 3131 3129 3128 3125 3125 3125 3124 3122 3120 3118 3115 3113 3112 3110 3108 3105 3103 3101 3099 3097 3094 3094 3092 3089 3086 3085 3082 3079 3077 3075 3072 3070 3069 3067 3066 3066 3064 3063 3062 3062 3062 3062
3122 3122 3121 3120 3118 3117 3116 3114 3112 3110 3109 3107 3107 3105 3103 3101 3098 3096 3094 3092 3089 3088 3086 3085 3082 3079 3078 3076 3074 3071 3069 3066 3063 3061 3060 3058 3057 3057 3057 3056 3055 3055 3055
3116 3115 3113 3111 3110 3108 3106 3104 3103 3101 3101 3099 3098 3097 3095 3093 3091 3089 3087 3085 3082 3080 3079 3077 3076 3073 3070 3069 3067 3065 3063 3060 3058 3055 3053 3050 3049 3048 3047 3047 3046 3046 3046
3106 3104 3101 3103 3102 3100 3099 3096 3092 3091 3089 3089 3089 3088 3086 3085 3083 3081 3079 3077 3075 3072 3071 3069 3068 3066 3063 3062 3059 3057 3056 3053 3051 3049 3047 3045 3043 3042 3040 3037 3036 3036 3036
3098 3100 3099 3095 3093 3094 3092 3088 3085 3082 3080 3080 3078 3077 3076 3076 3075 3072 3070 3069 3066 3065 3063 3061 3059 3058 3056 3054 3052 3049 3047 3045 3043 3041 3039 3038 3036 3036 3034 3031 3027 3026 3024
3089 3090 3089 3088 3086 3086 3084 3082 3082 3077 3073 3069 3068 3066 3064 3064 3064 3063 3061 3060 3057 3058 3055 3053 3051 3049 3047 3045 3043 3041 3039 3037 3033 3031 3030 3029 3025 3025 3025 3022 3019 3017 3014
3080 3079 3076 3076 3076 3075 3075 3074 3071 3067 3065 3059 3054 3050 3052 3053 3052 3052 3052 3049 3046 3047 3046 3044 3042 3040 3038 3035 3033 3031 3030 3028 3025 3020 3018 3017 3015 3012 3015 3014 3010 3007 3003
3072 3069 3067 3066 3065 3064 3063 3061 3058 3056 3050 3045 3044 3044 3042 3042 3042 3042 3042 3039 3038 3037 3036 3034 3033 3031 3029 3026 3023 3021 3018 3016 3015 3013 3007 3006 3002 2996 2998 3002 3001 2996 2993
Wind_Speed
8 12 14 14 14 13 12 11 11 10 10 9 9 8 8 8 9 10 11 12 13 14 15 17 19 12 10 13 17 19 18 17 17 17 20 21 23 23 22 23 19 14 22
9 11 14 14 13 12 11 11 10 9 8 8 7 7 8 8 7 8 10 11 12 14 15 17 19 19 14 11 14 17 19 18 17 17 19 22 23 24 24 22 20 16 21
9 11 11 11 11 11 10 9 9 8 8 7 7 8 7 7 8 8 9 10 11 10 13 14 15 18 17 15 14 14 17 18 18 17 18 20 23 25 25 23 24 23 23
8 9 9 9 8 8 7 6 7 8 8 8 8 8 8 8 9 9 10 11 12 12 12 13 14 15 16 17 15 15 15 16 18 19 20 20 21 22 24 26 27 25 23
5 6 7 7 6 6 6 6 7 8 8 10 10 10 9 10 10 11 11 13 14 15 15 14 15 16 16 15 15 15 16 16 16 17 20 22 22 22 23 23 23 22 19
3 4 4 4 5 6 6 7 8 8 9 9 10 9 10 11 12 13 14 14 14 15 16 17 17 17 16 16 16 14 15 15 16 15 17 20 22 23 23 23 22 22 26
3 4 4 5 5 6 6 7 8 8 9 9 10 10 12 12 13 14 15 16 17 17 17 18 18 19 18 17 17 17 14 14 15 15 16 17 19 22 24 24 24 24 26
2 3 4 6 6 7 8 8 9 9 10 10 11 12 13 15 16 16 17 17 18 18 19 19 20 19 18 18 18 18 17 15 15 15 15 16 17 19 22 25 26 26 27
3 4 5 7 9 9 9 9 10 11 12 13 13 14 15 17 18 18 19 20 20 20 20 20 20 21 21 19 18 18 18 16 15 15 16 15 16 17 19 22 25 28 29
5 5 5 6 8 10 11 11 12 13 13 14 14 15 16 17 19 20 21 21 22 21 21 21 20 20 20 20 19 18 19 17 16 16 16 16 16 16 17 19 22 25 28
6 7 6 7 9 10 10 11 14 15 16 16 16 16 17 18 19 21 23 23 24 24 23 22 22 20 19 19 19 18 18 18 17 17 17 16 16 16 17 18 20 21 23
7 7 7 8 10 11 12 13 14 15 16 16 16 17 17 18 18 19 21 23 25 25 24 23 22 21 20 19 18 18 18 18 18 17 17 17 17 17 17 17 19 20 21
10 9 8 10 12 12 13 13 14 15 17 17 17 17 17 17 17 18 19 21 23 25 25 24 23 22 21 20 19 19 19 19 19 19 17 17 17 18 17 17 18 19 20
15 15 15 14 15 15 16 16 17 18 18 18 17 17 17 17 17 18 18 19 20 23 25 25 24 23 22 21 20 19 19 19 20 20 19 18 18 18 19 18 19 19 20
20 20 21 21 20 19 19 19 19 18 18 18 18 17 17 18 18 19 19 19 20 21 23 25 24 24 22 21 20 20 20 19 20 20 20 19 18 18 19 20 20 20 21
23 24 25 24 25 29 29 23 22 20 21 19 19 17 17 18 19 20 20 20 20 21 22 22 23 24 23 22 21 20 20 20 19 19 19 20 19 18 19 20 21 21 22
26 27 28 30 26 32 29 29 29 17 23 22 20 17 18 19 20 21 20 21 22 20 20 21 23 24 24 23 22 23 22 21 20 19 19 19 19 19 19 19 20 22 23
27 25 28 26 31 37 32 33 30 23 20 23 23 20 19 20 21 21 21 22 22 22 20 20 21 23 24 24 23 23 23 22 21 20 19 19 19 19 20 20 21 22 24
28 25 30 26 29 32 39 31 28 28 25 23 23 23 20 20 23 22 22 22 22 22 22 22 21 22 23 23 24 24 24 23 23 22 21 20 19 20 21 22 23 25 26
31 26 31 30 24 35 33 33 33 27 27 23 24 25 23 23 24 24 23 24 23 23 23 23 24 22 23 23 24 24 24 23 24 24 23 23 22 22 22 23 25 27 27
32 30 32 29 28 27 34 35 34 30 28 26 26 28 26 25 25 26 25 26 24 24 24 24 26 25 24 24 24 24 24 23 23 24 23 25 25 25 25 26 28 29 29
31 29 33 34 33 28 30 37 36 32 32 30 31 31 28 28 27 27 26 28 26 25 24 26 27 26 25 25 26 25 25 24 24 25 23 23 25 25 27 29 31 31 32
31 31 34 30 31 29 31 39 38 37 39 33 38 35 32 30 29 29 27 29 27 27 27 26 27 28 27 27 27 27 28 27 26 28 27 26 26 25 26 28 31 32 34
32 30 29 32 34 32 33 36 40 41 38 45 44 42 39 35 31 31 30 30 28 30 29 28 27 29 29 29 29 29 30 29 30 31 30 29 31 29 27 28 30 32 35
32 32 31 31 32 33 34 39 42 49 51 52 54 51 40 33 32 30 29 30 28 31 32 29 29 30 30 30 31 32 31 31 30 34 35 34 34 34 30 28 31 34 37
33 33 33 33 34 36 37 43 46 52 57 56 52 46 40 35 30 29 30 31 30 34 32 31 32 32 32 32 32 33 34 34 33 34 38 38 38 41 38 32 31 34 37
Wind_Direction
335 330 327 323 320 324 331 335 341 346 355 354 352 347 339 338 333 328 325 323 320 319 313 308 313 306 274 276 278 278 272 265 258 250 246 245 245 249 249 255 257 248 222
329 331 325 320 326 335 344 345 340 345 348 344 344 336 336 334 328 324 323 321 324 321 315 315 314 313 311 284 266 271 274 272 265 258 250 246 246 246 247 244 244 246 240
328 325 324 326 334 334 340 336 333 337 340 340 337 338 339 336 332 329 324 321 322 322 319 317 312 307 309 304 291 275 269 269 267 261 255 252 249 248 248 247 249 242 247
327 325 327 329 331 327 324 322 323 328 330 336 337 338 334 331 331 329 327 327 327 325 324 321 317 309 304 302 301 294 280 270 265 262 257 255 251 248 249 246 247 245 246
326 330 332 330 321 320 319 325 330 330 331 336 335 331 329 332 333 332 329 325 326 326 325 323 319 316 313 309 302 295 287 280 271 262 259 254 252 249 245 248 247 244 245
355 348 333 323 317 320 329 333 332 329 332 329 321 323 328 331 330 326 323 324 326 324 323 322 320 319 316 314 310 301 293 288 278 267 259 255 252 250 246 244 242 240 223
59 24 353 338 339 331 330 339 334 333 333 322 323 328 329 328 324 322 321 321 322 323 322 321 319 319 319 317 312 307 299 291 284 275 267 258 253 250 247 243 240 238 236
7 22 359 351 352 343 347 339 335 335 331 329 328 328 326 325 322 320 319 319 319 319 320 321 320 319 318 317 315 309 303 297 288 281 274 267 258 252 249 245 241 239 236
304 307 325 326 337 342 340 340 340 338 334 329 326 326 325 322 318 318 319 318 317 317 318 319 319 319 319 318 314 309 305 301 295 286 279 274 267 260 252 249 245 239 239
293 301 334 339 337 335 338 340 339 338 329 323 326 321 316 317 316 316 315 314 314 315 316 317 317 317 317 317 313 309 304 302 296 290 283 278 273 265 259 254 250 246 240
322 306 319 332 335 334 336 338 338 333 328 326 319 315 317 315 313 313 314 312 313 314 315 315 314 314 313 311 309 307 303 302 299 292 286 281 276 271 265 259 254 249 247
327 339 318 322 325 326 334 336 333 327 319 314 314 314 309 307 306 307 307 309 310 311 311 310 309 310 311 310 309 308 305 302 298 293 287 282 278 274 269 264 260 255 250
305 315 318 317 314 322 327 325 319 313 316 319 314 306 303 302 302 303 304 306 305 306 306 306 306 307 310 311 310 308 306 304 299 295 290 284 279 275 271 267 263 259 255
292 294 296 306 315 311 311 310 314 317 317 314 308 306 305 303 302 302 304 304 304 303 303 304 305 306 308 310 310 308 306 303 298 295 293 289 284 278 274 269 265 262 259
289 292 293 296 299 301 302 298 302 307 308 310 308 308 306 303 304 306 306 305 304 302 300 301 303 304 306 307 308 308 305 302 298 296 293 290 286 282 276 273 269 263 261
286 286 286 286 290 297 301 303 290 298 304 303 303 304 304 303 304 304 304 305 306 303 300 299 301 303 305 307 308 306 305 304 299 294 292 290 287 282 278 275 272 271 266
276 279 281 276 290 288 293 289 292 287 298 300 298 297 300 304 304 303 303 308 307 304 301 301 302 304 305 307 309 308 308 307 302 296 292 289 286 283 279 276 273 271 270
282 288 295 300 282 291 273 293 292 289 292 293 293 294 298 302 302 302 303 306 307 305 300 300 304 304 304 306 307 306 306 307 302 297 292 288 286 286 282 278 274 271 270
274 289 294 296 294 304 299 300 297 291 282 285 290 292 294 297 297 299 300 301 303 304 301 300 301 302 302 304 305 306 307 307 303 299 295 291 287 284 283 282 280 278 274
257 291 289 295 294 294 300 310 287 277 274 284 290 290 290 291 293 294 296 298 301 303 301 301 302 302 302 304 305 306 306 306 303 300 298 295 291 288 285 283 279 277 276
268 281 285 280 294 291 284 304 283 280 281 285 287 287 284 285 289 291 293 296 298 300 300 300 301 301 302 304 305 306 305 303 299 297 297 297 296 295 293 289 285 282 279
283 272 271 281 287 284 290 292 282 277 283 281 282 280 280 282 286 288 290 292 294 297 298 299 301 300 301 303 304 304 304 304 301 296 292 291 291 292 292 290 287 285 283
271 279 284 285 285 287 291 282 281 281 288 277 276 277 277 275 280 282 284 286 292 292 293 296 300 300 300 301 302 304 305 306 305 300 296 292 287 286 286 286 286 286 284
287 284 277 277 282 279 291 286 292 291 279 280 275 270 266 267 273 276 283 285 290 292 291 296 299 299 299 300 301 304 304 306 305 302 300 297 294 292 290 289 289 289 288
270 278 274 275 274 276 279 283 285 286 281 277 270 261 265 271 273 276 283 280 282 286 289 293 296 297 298 299 301 303 303 304 307 306 304 301 298 293 291 290 291 290 290
271 271 276 279 279 282 282 283 286 293 284 282 282 281 270 265 269 276 286 280 280 281 285 289 293 295 296 297 300 302 305 306 306 305 303 302 303 301 295 292 291 290 288